Weather History for Nome, AK

Change the Weather History Date:

Tuesday, July 30, 2013

  Actual Average Record
Temperature  
Mean Temperature 59 °F 52 °F  
Max Temperature 64 °F 57 °F 84 °F (1977)
Min Temperature 53 °F 46 °F 33 °F (1929)
Degree Days  
Heating Degree Days 6 13  
Month to date heating degree days 401 387  
Since 1 June heating degree days 877 903  
Since 1 July heating degree days 401 387  
Cooling Degree Days 0    
Month to date cooling degree days 0  
Year to date cooling degree days 7  
Since 1 June cooling degree days 7  
Growing Degree Days 8 (Base 50)    
Moisture  
Dew Point 50 °F    
Average Humidity 0    
Maximum Humidity 0    
Minimum Humidity 0    
Precipitation  
Precipitation 0.00 in 0.10 in 0.92 in (1984)
Month to date precipitation 2.12 2.01  
Year to date precipitation 8.90 7.13  
Snow  
Snow 0.00 in 0.00 in 0.00 in (2014)
Month to date snowfall 0.0 0.0  
Since 1 June snowfall 0.1 0.3  
Since 1 July snowfall 0.0 0.0  
Snow Depth 0.00 in    
Sea Level Pressure  
Sea Level Pressure 30.23 in    
Wind  
Wind Speed 7 mph (WSW)    
Max Wind Speed 13 mph    
Max Gust Speed 18 mph    
Visibility 10 miles    
Events      
T = Trace of Precipitation, MM = Missing Value Source: NWS Daily Summary

Daily Weather History Graph

Daily Weather History Graph

Search for Another Location

Airport:

Trip Planner

Search our weather history database for the weather conditions in past years. The results will help you decide how hot, cold, wet, or windy it might be!

Date:

Astronomy

Jul. 30, 2013 Rise Set
Actual Time 5:59 AM AKDT 12:13 AM AKDT
Civil Twilight 4:18 AM AKDT 1:51 AM AKDT
Nautical Twilight Sun does not rise Sun does not rise
Astronomical Twilight Sun does not rise Sun does not rise
Moon 12:49 AM AKDT (7/30) 6:39 PM AKDT (7/30)
Length of Visible Light 21h 32m
Length of Day
18h 14m
Last Quarter, 39% of the Moon is Illuminated
Jul 30
Last Quarter
Aug 6
New
Aug 14
First Quarter
Aug 20
Full
Aug 28
Last Quarter

Hourly Weather History & Observations

Time (AKDT) Temp. Dew Point Humidity Pressure Visibility Wind Dir Wind Speed Gust Speed Precip Events Conditions
12:53 AM 54.0 °F 51.1 °F 90% 30.24 in 10.0 mi Calm Calm - N/A   Overcast
1:23 AM 53.6 °F 51.8 °F 94% 30.25 in 10.0 mi SSW 3.5 mph - N/A   Overcast
1:36 AM 53.6 °F 51.8 °F 94% 30.24 in 10.0 mi Calm Calm - N/A   Overcast
1:53 AM 54.0 °F 52.0 °F 93% 30.24 in 10.0 mi SSW 4.6 mph - N/A   Overcast
2:53 AM 54.0 °F 52.0 °F 93% 30.24 in 10.0 mi Calm Calm - N/A   Overcast
3:50 AM 53.6 °F 51.8 °F 94% 30.23 in 10.0 mi SW 4.6 mph - N/A   Overcast
3:53 AM 53.1 °F 51.1 °F 93% 30.23 in 10.0 mi SW 5.8 mph - N/A   Overcast
4:01 AM 53.6 °F 51.8 °F 94% 30.23 in 10.0 mi SW 4.6 mph - N/A   Overcast
4:24 AM 53.6 °F 51.8 °F 94% 30.23 in 10.0 mi SW 4.6 mph - N/A   Overcast
4:34 AM 53.6 °F 51.8 °F 94% 30.23 in 10.0 mi SW 5.8 mph - N/A   Overcast
4:53 AM 53.1 °F 51.1 °F 93% 30.24 in 10.0 mi SW 5.8 mph - N/A   Overcast
5:53 AM 53.1 °F 51.1 °F 93% 30.24 in 10.0 mi SSW 4.6 mph - N/A   Overcast
6:03 AM 53.6 °F 51.8 °F 94% 30.23 in 10.0 mi SW 3.5 mph - N/A   Overcast
6:53 AM 53.1 °F 48.9 °F 86% 30.23 in 10.0 mi WSW 4.6 mph - N/A   Overcast
7:53 AM 53.1 °F 50.0 °F 89% 30.24 in 10.0 mi SW 3.5 mph - N/A   Overcast
8:21 AM 53.6 °F 48.2 °F 82% 30.23 in 10.0 mi WSW 5.8 mph - N/A   Overcast
8:53 AM 53.1 °F 48.9 °F 86% 30.24 in 10.0 mi WSW 5.8 mph - N/A   Overcast
9:27 AM 53.6 °F 48.2 °F 82% 30.23 in 10.0 mi SW 10.4 mph - N/A   Overcast
9:53 AM 53.1 °F 48.9 °F 86% 30.24 in 10.0 mi SW 8.1 mph - N/A   Overcast
10:53 AM 54.0 °F 48.9 °F 83% 30.25 in 10.0 mi WSW 9.2 mph - N/A   Overcast
11:53 AM 55.0 °F 48.0 °F 77% 30.25 in 10.0 mi SW 8.1 mph - N/A   Mostly Cloudy
12:04 PM 55.4 °F 48.2 °F 77% 30.25 in 10.0 mi SW 8.1 mph - N/A   Overcast
12:53 PM 55.9 °F 48.0 °F 75% 30.26 in 10.0 mi WSW 9.2 mph - N/A   Mostly Cloudy
1:53 PM 55.0 °F 48.9 °F 80% 30.27 in 10.0 mi WSW 8.1 mph - N/A   Mostly Cloudy
2:53 PM 55.9 °F 48.0 °F 75% 30.25 in 10.0 mi WSW 12.7 mph - N/A   Mostly Cloudy
3:53 PM 55.9 °F 48.9 °F 77% 30.26 in 10.0 mi West 12.7 mph - N/A   Overcast
4:53 PM 59.0 °F 48.9 °F 69% 30.25 in 10.0 mi West 11.5 mph - N/A   Overcast
5:53 PM 63.0 °F 48.0 °F 58% 30.24 in 10.0 mi WNW 10.4 mph - N/A   Overcast
6:53 PM 62.1 °F 48.9 °F 62% 30.22 in 10.0 mi NW 9.2 mph - N/A   Overcast
7:53 PM 63.0 °F 48.9 °F 60% 30.21 in 10.0 mi NW 8.1 mph - N/A   Overcast
8:53 PM 63.0 °F 48.9 °F 60% 30.20 in 10.0 mi NNW 3.5 mph - N/A   Overcast
9:53 PM 63.0 °F 51.1 °F 65% 30.19 in 10.0 mi WNW 4.6 mph - N/A   Overcast
10:53 PM 57.9 °F 50.0 °F 75% 30.18 in 10.0 mi West 6.9 mph - N/A   Overcast
11:53 PM 57.0 °F 50.0 °F 77% 30.20 in 10.0 mi NNW 5.8 mph - N/A   Mostly Cloudy